sat.trackr.live / text

‹ back to catalog

SES-5 (EGNOS/PRN 136)

NORAD 38652 · 2012-036A

PAYLOAD ACTIVE UNKNOWN

§ Identity

Operator
Country
SES
Launch date
2012-07-09
Launch site
TYMSC
Launch vehicle
Mass (kg)
RCS (m²)
37.71

Purposes: comms, nav

External: N2YO · Heavens-Above · Gunter

§ Orbital elements

Epoch: 2026-05-25T02:03:17.529120Z

Period
1,436.08 min
Inclination
0.0517°
Eccentricity
0.0001982
Mean motion
1.00272696 rev/d
Perigee alt
35,778.0 km
Apogee alt
35,794.7 km
Semi-major
42,164.5 km
B*
0.0000e+0
RAAN
306.9145°
Arg perigee
111.6351°
Mean anomaly
219.9280°
Rev number
4,422

§ Raw data

SES-5 (EGNOS/PRN 136)1 38652U 12036A   26145.08561955  .00000031  00000+0  00000+0 0  99952 38652   0.0517 306.9145 0001982 111.6351 219.9280  1.00272696 44221

JSON: /api/v1/satellites/38652 · /tle

For live sub-satellite position, see the globe view (requires WebGL).

§ Visibility from observer

Set your observer location to see the next 7 days of passes ≥ 10°. The values pass through the URL so the page stays shareable.

No JS? Fill the form by hand. The geolocation button needs JavaScript.